Temperature
9 9 8 9 10 11 11 11 11 11 12 11 10 11 12 12 12 11 10 10 9 9 8 8 8 8 8 8 8 8 9 9 9 9 10 10 11 11 11 11 12 12 12 12
8 8 9 10 10 10 11 11 11 11 12 11 10 11 11 12 11 10 10 9 8 8 7 7 7 7 7 7 7 8 8 8 8 9 9 9 10 10 10 11 11 11 11 11
8 8 10 10 10 10 10 10 10 10 10 11 10 10 11 11 11 10 9 8 7 7 6 6 6 6 7 7 7 7 7 8 8 8 9 9 9 10 10 10 10 11 11 11
8 9 9 9 10 10 9 10 10 10 9 8 10 8 10 11 10 10 9 7 7 6 6 6 6 6 6 6 6 7 7 7 7 8 8 8 9 9 9 9 10 10 10 10
8 8 9 9 9 10 9 10 9 9 8 8 9 8 9 11 10 9 8 7 6 6 5 5 5 5 5 6 6 6 6 7 7 7 7 8 8 8 8 9 9 9 9 9
8 9 9 9 9 9 9 9 9 9 8 7 9 8 8 9 9 9 8 7 6 5 5 5 5 5 5 5 6 6 6 6 6 7 7 7 7 8 8 8 8 8 8 9
8 8 9 9 9 9 9 8 8 8 7 8 9 8 8 9 9 8 7 6 6 5 5 4 4 5 5 5 5 6 6 6 6 6 6 7 7 7 7 7 7 8 8 8
8 8 9 9 9 8 9 8 8 8 9 9 9 8 9 9 9 8 7 6 5 5 5 4 4 4 4 5 5 5 5 5 5 6 6 6 6 6 6 6 7 7 7 7
8 8 9 9 9 9 9 8 9 7 8 8 9 10 9 9 8 7 7 6 5 5 5 4 4 4 4 4 4 4 5 5 5 5 5 5 6 6 6 6 6 6 6 6
9 8 9 9 9 9 9 9 8 8 8 8 10 10 9 8 7 7 7 6 6 5 5 4 4 4 4 4 4 4 4 4 4 5 5 5 5 5 5 5 5 5 5 6
9 8 8 9 8 9 8 8 8 8 8 8 8 9 10 8 8 7 7 6 6 5 5 5 4 4 4 4 4 4 4 4 4 4 4 4 4 4 4 5 5 5 5 5
9 8 7 9 10 10 9 9 9 8 8 9 8 8 10 9 8 8 7 7 6 6 5 5 4 4 4 4 4 4 4 4 4 4 4 4 4 4 4 4 4 4 4 4
9 8 7 8 8 9 9 9 9 9 8 7 7 8 9 9 9 8 8 7 7 6 5 5 4 4 4 4 4 4 3 3 3 3 3 3 3 3 3 3 3 3 3 3
9 8 7 8 9 9 9 9 9 8 6 7 8 8 9 9 8 8 8 7 7 6 6 5 4 4 4 4 4 3 3 3 3 3 3 3 3 3 3 2 3 3 3 3
8 7 8 8 9 9 9 9 9 8 8 7 8 9 9 9 9 9 8 8 7 7 6 5 5 4 4 4 4 3 3 3 3 3 3 2 2 2 2 2 2 2 2 2
8 7 7 7 9 9 8 9 9 9 9 8 8 8 9 10 10 9 9 8 7 7 6 6 5 4 4 4 4 3 3 3 3 3 2 2 2 2 2 2 2 2 1 1
8 8 7 7 9 9 7 9 9 9 9 9 8 9 9 9 9 9 9 8 8 7 6 6 5 5 4 4 4 4 3 3 3 2 2 2 2 2 1 1 1 1 1 1
7 7 6 6 7 7 10 10 10 10 10 9 9 9 9 9 9 9 9 8 8 7 7 6 5 5 4 4 4 3 3 3 2 2 2 1 1 1 1 1 1 0 0 0
7 7 7 6 7 8 10 9 9 9 9 10 9 9 10 9 8 8 8 8 8 7 7 6 5 5 5 4 4 3 3 2 2 2 1 1 1 1 0 0 0 -0 -1 -1
7 7 6 6 7 8 10 9 9 9 8 9 10 9 9 8 6 7 8 8 7 7 6 6 5 5 4 4 3 3 3 2 2 1 1 1 1 0 -0 -0 -1 -1 -1 -2
6 6 5 5 6 8 9 8 8 8 9 9 9 9 8 7 7 8 8 7 7 6 6 5 5 5 4 4 3 3 2 2 2 1 1 1 0 -0 -1 -1 -1 -2 -2 -2
6 6 6 6 6 7 8 7 7 8 9 9 9 8 8 8 7 7 7 6 6 6 5 5 5 4 4 3 3 3 2 2 1 1 0 0 -0 -1 -1 -1 -2 -2 -3 -3
7 8 7 7 8 9 9 9 9 9 9 8 8 8 7 7 7 6 6 6 6 5 5 5 4 4 3 3 3 2 2 1 1 0 0 -0 -1 -1 -2 -2 -2 -3 -3 -4
8 8 7 6 7 9 10 10 10 9 8 8 7 7 7 6 6 6 5 5 5 5 5 4 4 3 3 3 2 2 1 1 0 0 -0 -1 -1 -2 -2 -3 -3 -4 -4 -5
7 7 5 5 7 9 9 9 9 8 8 7 7 7 6 6 6 5 5 5 5 4 4 4 4 3 3 2 2 1 1 0 -0 -0 -1 -1 -2 -2 -3 -3 -4 -4 -5 -5
6 6 6 6 8 8 8 8 8 7 7 7 6 6 6 5 5 5 5 5 4 4 4 4 3 3 2 2 1 1 0 -0 -1 -1 -1 -2 -2 -3 -3 -4 -4 -4 -5 -5
Wind_Speed
1 1 3 3 0 4 2 1 1 1 2 2 7 8 7 3 2 2 3 4 5 6 7 7 8 8 8 8 8 8 8 7 5 4 4 4 3 3 2 2 2 3 3 2
3 4 4 3 1 2 1 1 0 1 1 3 7 10 7 3 2 1 2 4 6 7 8 9 8 8 8 8 8 8 8 7 6 4 4 3 3 2 1 1 2 3 3 2
5 4 2 2 2 0 1 1 2 2 5 6 6 7 5 5 4 2 2 4 6 7 8 9 9 9 8 8 8 8 8 8 7 5 3 3 2 2 2 3 3 3 3 3
4 2 1 1 1 1 1 3 2 3 3 3 3 4 4 6 5 2 3 4 4 5 7 8 8 8 8 8 7 8 8 8 8 6 4 3 2 2 2 2 3 3 4 4
3 2 1 1 1 2 1 3 3 3 3 4 4 4 5 4 4 1 2 3 3 4 5 7 7 8 7 8 8 7 7 8 8 7 6 3 3 2 2 3 4 4 4 5
2 2 1 2 2 1 2 3 5 4 2 4 5 5 4 2 2 1 2 2 3 4 5 6 7 7 7 8 7 7 7 8 8 8 7 6 5 4 5 5 4 4 4 5
2 3 2 1 1 2 2 2 1 2 3 5 4 4 4 2 4 2 2 1 2 3 4 5 6 7 8 8 8 8 8 8 8 7 7 6 5 5 5 4 4 5 5 5
1 1 4 3 1 0 2 2 2 2 2 1 2 4 2 5 5 4 3 1 1 2 2 3 4 5 6 7 8 8 8 7 8 7 7 6 6 4 4 5 5 5 5 5
2 1 3 2 1 1 1 1 1 2 4 3 4 4 3 5 3 2 2 1 0 0 1 2 3 3 4 6 7 7 7 8 9 8 8 7 8 7 6 6 6 5 5 6
2 1 2 3 2 2 2 2 1 2 2 4 4 4 3 4 4 3 3 2 2 1 1 1 1 2 3 4 5 6 7 7 7 8 7 7 8 7 7 7 7 7 6 7
1 1 1 3 4 4 4 3 3 3 3 3 4 2 2 4 4 4 3 3 2 2 1 1 1 2 2 3 4 5 6 6 7 7 7 7 7 7 7 7 7 6 6 7
1 1 3 4 3 1 3 4 4 2 3 3 3 4 2 4 4 4 3 2 2 3 2 2 1 1 2 2 3 4 4 5 6 6 7 7 7 7 7 7 7 7 7 8
3 2 3 2 2 2 4 5 5 4 3 3 3 4 3 4 4 4 4 4 3 3 4 3 2 2 1 2 2 3 4 5 6 6 6 7 7 7 7 7 7 7 7 7
3 3 3 4 2 2 4 5 7 6 4 4 6 7 5 5 4 4 4 4 4 4 4 4 3 2 2 2 2 3 4 4 5 5 5 6 6 6 6 6 6 6 6 6
2 4 6 9 10 8 9 9 8 10 9 7 6 7 7 4 4 5 5 5 5 5 5 5 4 3 2 2 2 2 2 3 3 4 4 5 5 5 5 6 6 6 6 7
3 4 6 7 8 9 11 11 11 10 11 13 12 12 7 4 3 3 4 5 5 4 4 5 5 4 3 3 2 2 2 2 2 3 3 3 4 5 5 5 6 6 6 6
3 3 4 5 6 7 8 9 11 8 8 8 11 8 3 3 4 5 5 5 5 5 5 5 5 5 5 4 4 3 1 1 1 2 2 3 4 4 5 6 6 6 6 6
4 4 3 5 6 6 5 1 2 6 8 9 8 5 4 4 3 4 5 5 5 5 5 5 5 5 5 4 4 3 2 1 0 1 2 3 3 4 4 5 5 6 5 5
6 4 4 3 5 8 4 3 2 3 5 7 8 6 4 1 1 4 4 5 5 4 4 5 5 5 5 5 4 4 2 1 0 1 1 2 3 3 4 4 4 4 5 5
3 4 4 4 4 5 3 3 2 1 5 2 3 2 2 3 2 4 2 3 3 3 4 5 5 4 4 4 4 3 2 1 1 1 1 2 2 3 4 4 4 4 4 5
3 5 6 7 6 7 2 5 4 2 3 2 1 1 2 5 5 2 2 2 3 4 5 6 5 4 4 4 4 3 2 2 2 1 1 2 2 3 3 3 4 4 5 5
6 5 6 5 6 8 5 6 5 4 1 1 1 2 3 3 2 2 2 3 4 4 5 6 5 4 4 4 4 3 3 2 1 1 1 2 2 3 3 3 4 4 5 5
7 6 4 7 8 3 7 6 5 2 2 3 3 3 3 4 4 4 4 5 5 6 5 5 5 5 4 4 5 4 3 1 1 1 2 2 3 3 3 3 4 4 4 4
5 3 4 7 9 7 7 8 6 5 4 3 3 4 4 6 6 5 4 5 5 5 5 5 5 5 4 4 4 4 3 2 1 2 2 2 2 3 3 3 3 3 4 5
6 3 5 8 9 9 8 5 3 3 2 3 4 5 6 6 6 6 5 5 5 5 5 5 5 5 5 5 4 4 3 2 1 2 2 2 2 3 3 4 3 4 4 5
9 11 9 10 7 5 4 1 1 3 4 5 5 5 5 5 6 6 5 5 5 5 5 5 5 5 5 5 5 4 3 3 2 2 2 2 2 3 3 4 5 7 8 11
Wind_Direction
157 123 117 129 7 1 31 71 161 103 103 270 258 267 269 241 242 309 344 352 350 355 2 360 356 356 353 348 341 332 325 320 318 314 305 287 278 277 281 277 292 299 302 296
105 80 71 86 85 7 0 297 315 68 81 283 277 275 261 200 179 64 352 354 3 360 356 357 359 358 355 348 343 338 333 328 325 316 301 284 277 272 287 312 317 318 318 318
85 91 120 134 139 99 332 344 11 339 315 264 273 279 218 169 160 155 69 37 19 3 355 355 356 357 355 350 344 341 338 335 328 318 317 325 331 338 355 359 351 348 353 355
76 91 136 142 87 343 32 38 341 304 316 300 297 293 249 186 179 157 77 44 16 2 358 355 353 351 352 347 342 342 344 347 349 348 356 1 355 347 339 341 348 353 6 9
93 121 142 126 41 349 17 354 300 283 282 289 242 239 270 174 196 167 85 54 18 6 3 356 352 349 351 350 349 348 353 359 2 4 7 3 359 353 357 2 8 8 10 13
99 83 359 10 27 341 323 288 256 238 256 262 221 213 275 179 179 127 92 61 21 12 6 1 360 360 1 358 357 357 0 5 6 10 15 19 18 16 18 11 13 16 14 14
106 146 152 216 260 191 242 289 253 204 217 243 173 196 254 128 109 116 104 72 37 25 11 5 2 2 4 3 5 7 9 6 6 12 15 16 23 25 23 16 17 19 15 10
85 150 161 184 283 274 243 281 328 295 300 336 176 225 233 115 107 102 108 105 61 25 12 12 8 10 7 6 9 10 10 10 10 15 17 21 26 33 28 26 27 24 16 7
24 82 132 159 256 286 263 234 352 300 286 269 238 202 152 119 133 150 155 156 253 37 41 28 23 20 15 15 14 12 16 19 18 18 21 28 27 30 30 27 28 25 14 8
358 304 191 143 189 225 280 320 287 255 296 289 262 223 201 185 208 202 197 213 225 149 101 68 52 37 29 24 15 17 25 24 20 21 25 31 30 29 29 29 27 22 16 14
314 276 219 185 214 199 184 217 228 250 259 279 299 284 112 167 178 187 195 189 174 146 141 114 80 74 53 35 27 31 27 27 24 23 27 30 29 30 31 32 27 22 20 20
342 296 263 230 174 146 219 225 220 248 261 238 265 268 111 136 157 176 193 181 167 161 161 157 144 114 80 52 43 44 36 31 28 25 27 28 27 29 29 27 23 21 21 21
337 287 292 219 168 190 241 233 232 256 294 257 249 251 149 167 182 190 189 193 197 183 178 170 163 142 113 78 54 47 40 35 29 25 26 25 23 25 23 20 17 18 19 16
324 281 255 270 292 267 249 234 215 213 220 246 234 248 232 212 212 201 191 196 201 192 179 175 176 166 132 102 76 59 45 41 34 25 25 26 21 18 16 14 14 15 14 13
276 275 274 276 280 275 262 254 232 221 223 236 254 266 270 259 228 207 195 199 202 198 184 181 178 166 136 120 100 77 53 43 35 25 21 18 12 11 11 10 9 8 9 8
270 278 294 280 257 253 259 250 239 237 233 239 257 271 262 239 204 198 204 203 206 206 191 178 171 167 160 152 136 112 79 53 37 24 12 9 8 7 5 1 2 3 3 2
260 284 305 285 301 298 269 245 223 218 216 221 241 243 226 247 228 214 216 217 214 206 190 180 175 174 169 157 143 139 125 76 36 6 359 4 1 0 358 357 359 357 355 354
254 274 263 287 308 262 242 74 187 223 233 224 234 237 236 244 246 232 221 212 214 201 182 174 166 160 154 147 145 146 141 142 151 345 351 355 352 349 349 352 351 348 346 343
218 254 272 276 285 276 253 180 171 225 264 229 225 230 227 168 346 271 222 197 199 186 163 157 155 149 148 151 150 144 152 162 163 314 332 340 341 338 340 340 333 330 330 325
216 231 255 267 270 263 254 131 98 58 269 232 166 191 180 136 233 252 194 162 160 143 137 140 138 138 147 152 139 144 171 178 230 267 299 320 327 326 323 320 316 315 312 309
194 214 225 241 257 267 223 140 132 191 248 107 116 178 192 206 225 224 144 149 158 154 149 143 145 153 160 149 142 164 187 215 232 245 282 299 306 305 306 310 309 309 310 312
199 206 210 206 227 251 177 154 195 222 149 166 234 241 235 242 260 241 192 185 174 168 163 158 159 166 160 153 156 182 211 224 218 250 280 291 299 305 314 311 310 311 315 317
214 216 223 217 227 232 179 208 221 194 241 249 250 263 247 244 244 243 222 203 195 186 180 171 167 170 169 165 165 192 217 201 213 258 278 289 300 302 305 308 313 317 318 316
241 205 244 270 266 266 245 241 241 238 245 259 257 257 250 250 244 240 230 212 198 191 184 175 170 179 188 178 174 189 190 180 202 249 272 287 301 307 309 308 306 307 309 311
253 224 238 260 273 282 264 250 238 227 233 267 268 250 241 245 246 237 233 218 201 191 181 174 182 191 194 179 179 181 174 168 218 252 274 294 300 301 302 302 294 296 282 292
219 226 231 245 243 250 276 311 303 258 252 256 262 266 254 240 240 237 233 216 193 184 179 181 188 191 190 179 181 178 168 168 203 248 273 288 296 298 299 303 306 301 300 304
Height
1491 1494 1496 1495 1494 1493 1492 1493 1495 1496 1496 1499 1498 1495 1492 1492 1493 1494 1494 1494 1494 1493 1491 1489 1486 1484 1481 1479 1477 1475 1474 1472 1471 1471 1470 1470 1471 1472 1473 1474 1475 1476 1477 1478
1494 1497 1496 1495 1495 1495 1494 1495 1496 1496 1496 1497 1496 1493 1489 1489 1491 1493 1493 1493 1493 1491 1489 1487 1485 1482 1480 1477 1475 1473 1471 1470 1469 1468 1467 1468 1468 1469 1469 1470 1471 1472 1473 1474
1495 1499 1497 1497 1497 1497 1496 1498 1499 1500 1498 1495 1497 1492 1486 1487 1489 1491 1492 1492 1492 1491 1489 1486 1484 1481 1479 1476 1474 1472 1470 1468 1467 1466 1465 1465 1466 1466 1466 1467 1467 1468 1469 1470
1497 1499 1498 1498 1498 1498 1500 1498 1499 1500 1503 1503 1499 1503 1489 1485 1487 1489 1491 1491 1491 1490 1488 1486 1483 1480 1478 1475 1473 1471 1469 1467 1465 1464 1463 1463 1463 1463 1463 1464 1464 1465 1465 1466
1499 1500 1500 1500 1499 1499 1500 1500 1500 1501 1503 1506 1500 1504 1492 1483 1486 1487 1489 1491 1490 1489 1487 1485 1482 1480 1477 1475 1472 1470 1468 1466 1464 1463 1462 1462 1461 1461 1461 1461 1462 1462 1462 1462
1500 1501 1501 1501 1500 1501 1501 1501 1500 1501 1504 1507 1497 1500 1493 1485 1485 1486 1489 1490 1489 1488 1486 1484 1482 1479 1476 1474 1471 1469 1467 1465 1464 1463 1461 1461 1460 1460 1460 1460 1460 1460 1460 1460
1501 1501 1502 1502 1502 1502 1502 1505 1505 1505 1506 1500 1489 1494 1492 1483 1483 1486 1488 1488 1488 1487 1485 1483 1481 1478 1476 1473 1471 1469 1467 1465 1464 1463 1461 1460 1460 1459 1459 1459 1458 1458 1457 1457
1503 1504 1501 1502 1502 1503 1502 1504 1508 1506 1499 1494 1489 1493 1486 1482 1484 1485 1487 1487 1487 1486 1484 1483 1481 1478 1476 1474 1471 1469 1467 1466 1464 1463 1461 1461 1460 1459 1458 1458 1457 1457 1456 1456
1501 1504 1500 1500 1501 1502 1501 1502 1501 1506 1500 1499 1490 1483 1482 1482 1484 1485 1486 1486 1485 1485 1483 1482 1480 1478 1476 1474 1472 1470 1468 1466 1465 1463 1462 1461 1460 1459 1458 1458 1457 1456 1456 1455
1501 1504 1500 1500 1502 1502 1502 1501 1504 1505 1503 1497 1485 1481 1483 1483 1483 1484 1484 1484 1484 1483 1482 1481 1480 1478 1477 1475 1473 1471 1469 1467 1466 1464 1462 1461 1460 1459 1458 1457 1457 1456 1455 1454
1500 1504 1502 1500 1500 1499 1502 1502 1501 1501 1500 1501 1494 1487 1476 1478 1479 1481 1482 1482 1482 1482 1481 1481 1479 1478 1477 1475 1474 1472 1470 1468 1466 1465 1463 1461 1460 1459 1458 1458 1456 1455 1454 1453
1500 1502 1503 1497 1493 1493 1495 1496 1498 1501 1497 1494 1497 1491 1476 1476 1477 1478 1480 1480 1480 1480 1480 1480 1479 1478 1477 1476 1474 1472 1471 1469 1467 1466 1464 1462 1461 1460 1458 1457 1456 1455 1453 1452
1501 1502 1505 1498 1500 1497 1496 1493 1493 1495 1497 1497 1496 1489 1477 1476 1476 1477 1478 1478 1479 1479 1479 1479 1478 1477 1476 1475 1474 1472 1471 1470 1468 1467 1465 1463 1462 1460 1459 1457 1456 1454 1453 1451
1502 1502 1504 1502 1495 1492 1493 1490 1490 1494 1500 1494 1487 1480 1476 1475 1475 1475 1475 1476 1477 1477 1477 1477 1477 1476 1475 1475 1473 1472 1471 1470 1469 1467 1465 1464 1462 1460 1459 1457 1455 1453 1452 1450
1502 1503 1499 1495 1490 1488 1488 1487 1486 1488 1488 1488 1479 1475 1471 1471 1471 1472 1473 1473 1474 1475 1475 1475 1475 1475 1474 1473 1473 1472 1471 1470 1469 1467 1465 1464 1462 1460 1458 1456 1454 1452 1450 1449
1501 1501 1498 1495 1486 1484 1483 1480 1480 1480 1479 1478 1476 1473 1467 1468 1468 1469 1470 1471 1472 1472 1472 1473 1473 1473 1472 1472 1471 1471 1470 1469 1468 1467 1465 1463 1462 1460 1458 1456 1454 1451 1449 1447
1501 1500 1500 1496 1484 1483 1482 1470 1471 1472 1470 1471 1472 1468 1466 1467 1466 1467 1468 1468 1469 1469 1470 1470 1470 1470 1470 1470 1469 1469 1469 1468 1467 1465 1464 1462 1460 1458 1456 1454 1452 1450 1448 1446
1500 1500 1501 1497 1491 1490 1470 1462 1461 1463 1463 1463 1463 1462 1463 1464 1464 1464 1465 1465 1466 1466 1467 1467 1467 1467 1467 1467 1467 1467 1467 1466 1465 1463 1462 1460 1458 1456 1454 1452 1450 1448 1446 1443
1497 1499 1499 1497 1492 1479 1465 1462 1462 1464 1462 1458 1459 1460 1461 1462 1462 1462 1462 1462 1463 1463 1464 1464 1465 1465 1465 1465 1465 1465 1464 1463 1462 1461 1459 1458 1456 1454 1452 1450 1447 1445 1443 1441
1495 1497 1501 1496 1491 1481 1464 1462 1461 1464 1464 1456 1456 1458 1459 1460 1464 1461 1459 1459 1460 1460 1461 1461 1462 1462 1462 1462 1462 1462 1461 1460 1459 1458 1457 1455 1453 1451 1449 1447 1445 1442 1440 1438
1497 1498 1499 1497 1491 1474 1462 1461 1463 1469 1462 1457 1456 1457 1457 1458 1459 1457 1456 1456 1457 1457 1457 1458 1458 1459 1459 1459 1459 1459 1458 1457 1456 1455 1453 1452 1450 1448 1446 1444 1442 1439 1437 1434
1489 1490 1489 1488 1487 1476 1460 1461 1462 1460 1456 1455 1455 1455 1455 1455 1455 1454 1453 1453 1453 1453 1454 1454 1455 1455 1455 1456 1456 1455 1455 1454 1453 1452 1450 1449 1447 1445 1443 1441 1438 1436 1433 1431
1478 1475 1474 1473 1469 1458 1456 1455 1454 1454 1454 1453 1453 1453 1453 1452 1451 1451 1450 1450 1450 1450 1450 1451 1451 1452 1452 1452 1452 1451 1451 1450 1449 1448 1447 1445 1443 1441 1439 1437 1435 1432 1430 1427
1469 1467 1468 1466 1456 1453 1452 1451 1451 1451 1451 1450 1450 1450 1449 1448 1447 1447 1446 1446 1446 1446 1447 1447 1448 1448 1448 1448 1448 1448 1447 1446 1445 1444 1443 1441 1439 1438 1436 1434 1431 1429 1426 1424
1468 1465 1466 1462 1454 1451 1448 1448 1448 1447 1447 1447 1446 1446 1445 1444 1443 1443 1442 1442 1442 1443 1443 1444 1444 1444 1444 1444 1444 1444 1443 1442 1441 1440 1439 1437 1436 1434 1432 1430 1428 1425 1423 1421
1459 1460 1460 1454 1449 1448 1446 1445 1445 1444 1443 1443 1442 1441 1441 1440 1439 1439 1438 1438 1438 1438 1439 1439 1440 1440 1440 1440 1440 1440 1439 1438 1437 1436 1435 1433 1432 1430 1428 1426 1424 1422 1420 1417